Weather History for Vichy, France

Change the Weather History Date:

Tuesday, March 11, 2014

  Actual Average Record
Temperature  
Mean Temperature 46 °F -  
Max Temperature 61 °F 54 °F 75 °F (2003)
Min Temperature 30 °F 35 °F 26 °F (2007)
Degree Days  
Heating Degree Days 20    
Moisture  
Dew Point 35 °F    
Average Humidity 66    
Maximum Humidity 96    
Minimum Humidity 24    
Precipitation  
Precipitation 0.00 in - - ()
Sea Level Pressure  
Sea Level Pressure 30.24 in    
Wind  
Wind Speed 2 mph ()    
Max Wind Speed 8 mph    
Max Gust Speed -    
Visibility 4.0 miles    
Events      
Averages and records for this station are not official NWS values.
T = Trace of Precipitation, MM = Missing Value Source: Averaged Metar Reports

Daily Weather History Graph

Daily Weather History Graph

Search for Another Location

Airport:

Trip Planner

Search our weather history database for the weather conditions in past years. The results will help you decide how hot, cold, wet, or windy it might be!

Date:

Astronomy

Mar. 11, 2014 Rise Set
Actual Time 7:07 AM CET 6:46 PM CET
Civil Twilight 6:37 AM CET 7:16 PM CET
Nautical Twilight 6:02 AM CET 7:51 PM CET
Astronomical Twilight 5:27 AM CET 8:26 PM CET
Moon 1:57 PM CET (3/11) 4:03 AM CET (3/11)
Length of Visible Light 12h 38m
Length of Day
11h 39m
Waxing Gibbous, 76% of the Moon is Illuminated
Mar 11
Waxing Gibbous
Mar 16
Full
Mar 24
Last Quarter
Mar 30
New
Apr 7
First Quarter

Hourly Weather History & Observations

Time (CET) Temp. Dew Point Humidity Pressure Visibility Wind Dir Wind Speed Gust Speed Precip Events Conditions
1:00 AM 37 °F 33 °F 82% 30.22 in 4 mi South 1.2 mph - -   Clear
2:00 AM 36 °F 33 °F 83% 30.22 in 3 mi Calm Calm - -   Clear
3:00 AM 34 °F 32 °F 88% 30.21 in 3 mi South 1.2 mph - -   Mist
4:00 AM 32 °F 30 °F 91% 30.22 in 2 mi Calm Calm - -   Mist
5:00 AM 32 °F 30 °F 90% 30.24 in 2 mi Calm Calm - -   Mist
6:00 AM 31 °F 30 °F 94% 30.26 in 2 mi Calm Calm - -   Mist
7:00 AM 30 °F 29 °F 94% 30.27 in 1 mi Calm Calm - -   Mist
8:00 AM 31 °F 30 °F 96% 30.28 in 2 mi South 2.3 mph - -   Mist
9:00 AM 38 °F 36 °F 87% 30.27 in 3 mi South 2.3 mph - -   Mist
10:00 AM 46 °F 37 °F 62% 30.25 in 3 mi Calm Calm - -   Clear
11:00 AM 49 °F 39 °F 59% 30.24 in 3 mi North 8.1 mph - -   Clear
12:00 PM 54 °F 40 °F 48% 30.22 in 4 mi NNE 4.6 mph - -   Clear
1:00 PM 57 °F 36 °F 34% 30.21 in 6 mi NE 6.9 mph - -   Clear
2:00 PM 59 °F 35 °F 29% 30.20 in 6 mi North 6.9 mph - -   Clear
3:00 PM 60 °F 37 °F 31% 30.18 in 6 mi NNE 6.9 mph - -   Clear
4:00 PM 61 °F 34 °F 24% 30.19 in 8 mi NNE 6.9 mph - -   Clear
5:00 PM 60 °F 38 °F 32% 30.20 in 7 mi ENE 4.6 mph - -   Clear
6:00 PM 57 °F 39 °F 39% 30.22 in 5 mi NNE 2.3 mph - -   Clear
7:00 PM 51 °F 39 °F 53% 30.25 in 5 mi Calm Calm - -   Clear
8:00 PM 45 °F 38 °F 67% 30.27 in 5 mi SSE 1.2 mph - -   Clear
9:00 PM 42 °F 37 °F 76% 30.29 in 4 mi South 1.2 mph - -   Clear
10:00 PM 40 °F 36 °F 82% 30.31 in 4 mi Calm Calm - -   Clear
11:00 PM 39 °F 35 °F 81% 30.32 in 3 mi Calm Calm - -   Clear